Location: Göttingen
(51.5413°N, 9.9158°E)
Time: 17:51:03
(UTC+02:00)

Tiros 1 despin weight - Pass Details

Date: 01 June 2022
Orbit: 591 x 639 km, 48.2° (Epoch: 04 July)

Event Time Altitude Azimuth Distance (km) Brightness Sun altitude
Rises 22:46:47 0° 277° (W) 2,856 ? -9.2°
Reaches altitude 10° 22:49:37 10° 259° (W) 1,941 ? -9.4°
Maximum altitude 22:52:43 19° 215° (SW) 1,447 ? -9.7°
Enters shadow 22:55:35 11° 172° (S) 1,863 ? -10.0°
